Time,TemperatureF,DewpointF,PressureIn,WindDirection,WindDirectionDegrees,WindSpeedMPH,WindSpeedGustMPH,Humidity,HourlyPrecipIn,Conditions,Clouds,dailyrainin,SoftwareType,DateUTC
2013-08-10 00:00:00,70.1,70.1,29.98,West,276,0.0,0.0,100,0.00,,SKC,0.89,VWS V14.01,2013-08-10 04:00:00,
2013-08-10 00:01:00,69.9,69.9,29.97,West,276,0.0,0.0,100,0.00,,SKC,0.89,VWS V14.01,2013-08-10 04:01:00,
2013-08-10 00:06:00,69.9,69.9,29.97,West,276,0.0,0.0,100,0.00,,SKC,0.00,VWS V14.01,2013-08-10 04:06:00,
2013-08-10 00:11:00,69.9,69.9,29.97,West,276,0.0,0.0,100,0.00,,SKC,0.00,VWS V14.01,2013-08-10 04:11:00,
2013-08-10 00:16:00,70.1,70.1,29.97,West,276,0.0,0.0,100,0.00,,SKC,0.00,VWS V14.01,2013-08-10 04:16:00,
2013-08-10 00:21:00,70.1,70.1,29.97,West,276,0.0,0.0,100,0.00,,SKC,0.00,VWS V14.01,2013-08-10 04:21:00,
2013-08-10 00:26:00,69.9,69.9,29.97,West,276,0.0,0.0,100,0.00,,SKC,0.00,VWS V14.01,2013-08-10 04:26:00,
2013-08-10 00:31:00,70.1,70.1,29.98,West,276,0.0,0.0,100,0.00,,SKC,0.00,VWS V14.01,2013-08-10 04:31:00,
2013-08-10 00:36:00,70.3,70.3,29.98,West,276,0.0,0.0,100,0.00,,SKC,0.00,VWS V14.01,2013-08-10 04:36:00,
2013-08-10 00:41:00,70.3,70.3,29.98,West,276,0.0,0.0,100,0.00,,SKC,0.00,VWS V14.01,2013-08-10 04:41:00,
2013-08-10 00:46:00,70.4,70.4,29.99,West,276,0.0,0.0,100,0.00,,SKC,0.00,VWS V14.01,2013-08-10 04:46:00,
2013-08-10 00:51:00,70.3,70.3,29.99,West,276,0.0,1.0,100,0.00,,SKC,0.00,VWS V14.01,2013-08-10 04:51:00,
2013-08-10 00:56:00,70.4,70.4,29.99,West,276,0.0,0.0,100,0.00,,SKC,0.00,VWS V14.01,2013-08-10 04:56:00,
2013-08-10 01:01:00,70.3,70.3,29.98,West,276,2.0,4.0,100,0.00,,SKC,0.00,VWS V14.01,2013-08-10 05:01:00,
2013-08-10 01:06:00,70.1,70.1,29.98,West,276,0.0,0.0,100,0.00,,SKC,0.00,VWS V14.01,2013-08-10 05:06:00,
2013-08-10 01:11:00,69.9,69.9,29.98,West,276,0.0,0.0,100,0.00,,SKC,0.00,VWS V14.01,2013-08-10 05:11:00,
2013-08-10 01:16:00,69.9,69.9,29.98,West,276,0.0,0.0,100,0.00,,SKC,0.00,VWS V14.01,2013-08-10 05:16:00,
2013-08-10 01:21:00,69.9,69.9,29.98,West,276,1.0,1.0,100,0.00,,SKC,0.00,VWS V14.01,2013-08-10 05:21:00,
2013-08-10 01:26:00,69.9,69.9,29.98,West,276,0.0,0.0,100,0.00,,SKC,0.00,VWS V14.01,2013-08-10 05:26:00,
2013-08-10 01:31:00,69.9,69.9,29.98,West,276,0.0,0.0,100,0.00,,SKC,0.00,VWS V14.01,2013-08-10 05:31:00,
2013-08-10 01:36:00,70.1,70.1,29.98,West,276,0.0,0.0,100,0.00,,SKC,0.00,VWS V14.01,2013-08-10 05:36:00,
2013-08-10 01:41:00,69.9,69.9,29.98,West,276,4.0,4.0,100,0.00,,SKC,0.00,VWS V14.01,2013-08-10 05:41:00,
2013-08-10 01:46:00,69.9,69.9,29.97,West,276,0.0,3.0,100,0.00,,SKC,0.00,VWS V14.01,2013-08-10 05:46:00,
2013-08-10 01:51:00,70.1,70.1,29.97,West,276,0.0,0.0,100,0.00,,SKC,0.00,VWS V14.01,2013-08-10 05:51:00,
2013-08-10 01:56:00,69.9,69.9,29.97,West,276,0.0,2.0,100,0.00,,SKC,0.00,VWS V14.01,2013-08-10 05:56:00,
2013-08-10 02:01:00,70.1,70.1,29.97,West,276,0.0,0.0,100,0.00,,SKC,0.00,VWS V14.01,2013-08-10 06:01:00,
2013-08-10 02:06:00,69.9,69.9,29.97,West,276,0.0,0.0,100,0.00,,SKC,0.00,VWS V14.01,2013-08-10 06:06:00,
2013-08-10 02:11:00,69.9,69.9,29.97,West,276,0.0,0.0,100,0.00,,SKC,0.00,VWS V14.01,2013-08-10 06:11:00,
2013-08-10 02:16:00,69.9,69.9,29.97,West,276,0.0,0.0,100,0.00,,SKC,0.00,VWS V14.01,2013-08-10 06:16:00,
2013-08-10 02:21:00,69.9,69.9,29.97,West,276,0.0,3.0,100,0.00,,SKC,0.00,VWS V14.01,2013-08-10 06:21:00,
2013-08-10 02:26:00,70.1,70.1,29.97,West,276,0.0,0.0,100,0.00,,SKC,0.00,VWS V14.01,2013-08-10 06:26:00,
2013-08-10 02:31:00,70.3,70.3,29.97,West,276,0.0,0.0,100,0.00,,SKC,0.00,VWS V14.01,2013-08-10 06:31:00,
2013-08-10 02:36:00,70.1,70.1,29.97,West,276,0.0,2.0,100,0.00,,SKC,0.00,VWS V14.01,2013-08-10 06:36:00,
2013-08-10 02:41:00,69.9,69.9,29.97,West,276,0.0,0.0,100,0.00,,SKC,0.00,VWS V14.01,2013-08-10 06:41:00,
2013-08-10 02:46:00,69.8,69.8,29.97,West,276,0.0,0.0,100,0.00,,SKC,0.00,VWS V14.01,2013-08-10 06:46:00,
2013-08-10 02:51:00,69.6,69.6,29.97,West,276,0.0,0.0,100,0.00,,SKC,0.00,VWS V14.01,2013-08-10 06:51:00,
2013-08-10 02:56:00,69.4,69.4,29.97,West,276,0.0,0.0,100,0.00,,SKC,0.00,VWS V14.01,2013-08-10 06:56:00,
2013-08-10 03:01:00,69.4,69.4,29.97,West,277,0.0,0.0,100,0.00,,SKC,0.00,VWS V14.01,2013-08-10 07:01:00,
2013-08-10 03:06:00,69.4,69.4,29.97,West,276,0.0,0.0,100,0.00,,SKC,0.00,VWS V14.01,2013-08-10 07:06:00,
2013-08-10 03:11:00,69.1,69.1,29.97,West,276,0.0,0.0,100,0.00,,SKC,0.00,VWS V14.01,2013-08-10 07:11:00,
2013-08-10 03:16:00,69.1,69.1,29.98,West,276,0.0,0.0,100,0.00,,SKC,0.00,VWS V14.01,2013-08-10 07:16:00,
2013-08-10 03:21:00,69.1,69.1,29.98,West,276,0.0,0.0,100,0.00,,SKC,0.00,VWS V14.01,2013-08-10 07:21:00,
2013-08-10 03:26:00,69.1,69.1,29.98,West,276,0.0,2.0,100,0.00,,SKC,0.00,VWS V14.01,2013-08-10 07:26:00,
2013-08-10 03:31:00,69.1,69.1,29.98,West,276,0.0,0.0,100,0.00,,SKC,0.00,VWS V14.01,2013-08-10 07:31:00,
2013-08-10 03:36:00,69.1,69.1,29.98,West,276,0.0,0.0,100,0.00,,SKC,0.00,VWS V14.01,2013-08-10 07:36:00,
2013-08-10 03:41:00,68.9,68.9,29.98,West,276,0.0,0.0,100,0.00,,SKC,0.00,VWS V14.01,2013-08-10 07:41:00,
2013-08-10 03:46:00,68.9,68.9,29.98,West,276,0.0,0.0,100,0.00,,SKC,0.00,VWS V14.01,2013-08-10 07:46:00,
2013-08-10 03:51:00,68.9,68.9,29.98,West,276,0.0,0.0,100,0.00,,SKC,0.00,VWS V14.01,2013-08-10 07:51:00,
2013-08-10 03:56:00,68.9,68.9,29.98,West,276,0.0,0.0,100,0.00,,SKC,0.00,VWS V14.01,2013-08-10 07:56:00,
2013-08-10 04:01:00,68.9,68.9,29.98,West,276,0.0,0.0,100,0.00,,SKC,0.00,VWS V14.01,2013-08-10 08:01:00,
2013-08-10 04:06:00,68.9,68.9,29.98,West,276,0.0,0.0,100,0.00,,SKC,0.00,VWS V14.01,2013-08-10 08:06:00,
2013-08-10 04:11:00,68.8,68.8,29.98,West,276,0.0,0.0,100,0.00,,SKC,0.00,VWS V14.01,2013-08-10 08:11:00,
2013-08-10 04:16:00,68.8,68.8,29.99,West,276,0.0,0.0,100,0.00,,SKC,0.00,VWS V14.01,2013-08-10 08:16:00,
2013-08-10 04:21:00,68.6,68.6,29.99,West,276,0.0,0.0,100,0.00,,SKC,0.00,VWS V14.01,2013-08-10 08:21:00,
2013-08-10 04:26:00,68.6,68.6,29.99,West,276,0.0,0.0,100,0.00,,SKC,0.00,VWS V14.01,2013-08-10 08:26:00,
2013-08-10 04:31:00,68.8,68.8,29.98,West,276,0.0,0.0,100,0.00,,SKC,0.00,VWS V14.01,2013-08-10 08:31:00,
2013-08-10 04:36:00,68.9,68.9,29.98,West,276,0.0,0.0,100,0.00,,SKC,0.00,VWS V14.01,2013-08-10 08:36:00,
2013-08-10 04:41:00,68.9,68.9,29.98,West,276,0.0,0.0,100,0.00,,SKC,0.00,VWS V14.01,2013-08-10 08:41:00,
2013-08-10 04:46:00,68.8,68.8,29.98,West,276,0.0,0.0,100,0.00,,SKC,0.00,VWS V14.01,2013-08-10 08:46:00,
2013-08-10 04:51:00,68.6,68.6,29.98,West,276,0.0,0.0,100,0.00,,SKC,0.00,VWS V14.01,2013-08-10 08:51:00,
2013-08-10 04:56:00,68.8,68.8,29.98,West,276,0.0,0.0,100,0.00,,SKC,0.00,VWS V14.01,2013-08-10 08:56:00,
2013-08-10 05:01:00,68.6,68.6,29.98,West,276,0.0,0.0,100,0.00,,SKC,0.00,VWS V14.01,2013-08-10 09:01:00,
2013-08-10 05:06:00,68.6,68.6,29.98,West,276,0.0,0.0,100,0.00,,SKC,0.00,VWS V14.01,2013-08-10 09:06:00,
2013-08-10 05:11:00,68.4,68.4,29.98,West,276,0.0,0.0,100,0.00,,SKC,0.00,VWS V14.01,2013-08-10 09:11:00,
2013-08-10 05:16:00,68.3,68.3,29.98,West,276,0.0,0.0,100,0.00,,SKC,0.00,VWS V14.01,2013-08-10 09:16:00,
2013-08-10 05:21:00,68.4,68.4,29.98,West,276,0.0,0.0,100,0.00,,SKC,0.00,VWS V14.01,2013-08-10 09:21:00,
2013-08-10 05:26:00,68.4,68.4,29.98,West,276,0.0,0.0,100,0.00,,SKC,0.00,VWS V14.01,2013-08-10 09:26:00,
2013-08-10 05:31:00,68.4,68.4,29.98,West,276,0.0,0.0,100,0.00,,SKC,0.00,VWS V14.01,2013-08-10 09:31:00,
2013-08-10 05:36:00,68.1,68.1,29.98,West,276,0.0,1.0,100,0.00,,SKC,0.00,VWS V14.01,2013-08-10 09:36:00,
2013-08-10 05:41:00,68.1,68.1,29.98,West,276,0.0,0.0,100,0.00,,SKC,0.00,VWS V14.01,2013-08-10 09:41:00,
2013-08-10 05:46:00,68.1,68.1,29.98,West,276,0.0,0.0,100,0.00,,SKC,0.00,VWS V14.01,2013-08-10 09:46:00,
2013-08-10 05:51:00,68.1,68.1,29.98,West,276,0.0,1.0,100,0.00,,SKC,0.00,VWS V14.01,2013-08-10 09:51:00,
2013-08-10 05:56:00,68.1,68.1,29.98,West,276,0.0,0.0,100,0.00,,SKC,0.00,VWS V14.01,2013-08-10 09:56:00,
2013-08-10 06:01:00,68.1,68.1,29.99,West,276,0.0,0.0,100,0.00,,SKC,0.00,VWS V14.01,2013-08-10 10:01:00,
2013-08-10 06:06:00,68.1,68.1,29.99,West,276,0.0,0.0,100,0.00,,SKC,0.00,VWS V14.01,2013-08-10 10:06:00,
2013-08-10 06:11:00,68.1,68.1,29.99,West,276,0.0,0.0,100,0.00,,SKC,0.00,VWS V14.01,2013-08-10 10:11:00,
2013-08-10 06:16:00,68.1,68.1,29.99,West,276,0.0,0.0,100,0.00,,SKC,0.00,VWS V14.01,2013-08-10 10:16:00,
2013-08-10 06:21:00,67.9,67.9,29.99,West,277,0.0,0.0,100,0.00,,SKC,0.00,VWS V14.01,2013-08-10 10:21:00,
2013-08-10 06:26:00,67.9,67.9,29.99,West,276,0.0,0.0,100,0.00,,SKC,0.00,VWS V14.01,2013-08-10 10:26:00,
2013-08-10 06:31:00,67.9,67.9,29.99,West,276,0.0,0.0,100,0.00,,SKC,0.00,VWS V14.01,2013-08-10 10:31:00,
2013-08-10 06:36:00,67.9,67.9,29.99,West,276,0.0,0.0,100,0.00,,SKC,0.00,VWS V14.01,2013-08-10 10:36:00,
2013-08-10 06:41:00,68.1,68.1,29.99,West,276,0.0,0.0,100,0.00,,SKC,0.00,VWS V14.01,2013-08-10 10:41:00,
2013-08-10 06:46:00,67.9,67.9,30.00,West,276,0.0,0.0,100,0.00,,SKC,0.00,VWS V14.01,2013-08-10 10:46:00,
2013-08-10 06:51:00,67.8,67.8,30.00,West,276,0.0,0.0,100,0.00,,SKC,0.00,VWS V14.01,2013-08-10 10:51:00,
2013-08-10 06:55:00,67.9,67.9,30.00,West,276,0.0,0.0,100,0.00,,SKC,0.00,VWS V14.01,2013-08-10 10:55:00,
2013-08-10 07:00:00,68.1,68.1,30.00,West,276,0.0,0.0,100,0.00,,SKC,0.00,VWS V14.01,2013-08-10 11:00:00,
2013-08-10 07:05:00,68.3,68.3,30.00,West,276,0.0,0.0,100,0.00,,SKC,0.00,VWS V14.01,2013-08-10 11:05:00,
2013-08-10 07:10:00,68.4,68.4,30.00,West,276,0.0,0.0,100,0.00,,SKC,0.00,VWS V14.01,2013-08-10 11:10:00,
2013-08-10 07:15:00,68.4,68.4,30.00,West,276,0.0,0.0,100,0.00,,SKC,0.00,VWS V14.01,2013-08-10 11:15:00,
2013-08-10 07:20:00,68.4,68.4,30.00,West,276,0.0,0.0,100,0.00,,SKC,0.00,VWS V14.01,2013-08-10 11:20:00,
2013-08-10 07:25:00,68.8,68.8,30.00,West,276,0.0,0.0,100,0.00,,SKC,0.00,VWS V14.01,2013-08-10 11:25:00,
2013-08-10 07:30:00,68.9,68.9,30.00,West,276,0.0,0.0,100,0.00,,SKC,0.00,VWS V14.01,2013-08-10 11:30:00,
2013-08-10 07:35:00,69.1,69.1,30.00,West,276,0.0,3.0,100,0.00,,SKC,0.00,VWS V14.01,2013-08-10 11:35:00,
2013-08-10 07:40:00,69.4,69.4,30.00,West,276,0.0,0.0,100,0.00,,SKC,0.00,VWS V14.01,2013-08-10 11:40:00,
2013-08-10 07:45:00,70.1,70.1,30.00,West,276,0.0,1.0,100,0.00,,SKC,0.00,VWS V14.01,2013-08-10 11:45:00,
2013-08-10 07:50:00,70.3,70.3,30.00,West,276,0.0,0.0,100,0.00,,SKC,0.00,VWS V14.01,2013-08-10 11:50:00,
2013-08-10 07:55:00,70.3,70.3,30.00,West,276,0.0,0.0,100,0.00,,SKC,0.00,VWS V14.01,2013-08-10 11:55:00,
2013-08-10 08:00:00,70.1,70.1,30.00,West,276,0.0,0.0,100,0.00,,SKC,0.00,VWS V14.01,2013-08-10 12:00:00,
2013-08-10 08:05:00,69.8,69.8,30.00,West,264,0.0,0.0,100,0.00,,SKC,0.00,VWS V14.01,2013-08-10 12:05:00,
2013-08-10 08:10:00,69.8,69.8,30.00,West,264,0.0,0.0,100,0.00,,SKC,0.00,VWS V14.01,2013-08-10 12:10:00,
2013-08-10 08:15:00,70.4,70.4,30.00,West,264,0.0,0.0,100,0.00,,SKC,0.00,VWS V14.01,2013-08-10 12:15:00,
2013-08-10 08:20:00,71.3,71.3,30.00,West,264,0.0,0.0,100,0.00,,SKC,0.00,VWS V14.01,2013-08-10 12:20:00,
2013-08-10 08:25:00,72.0,72.0,30.00,West,264,0.0,0.0,100,0.00,,SKC,0.00,VWS V14.01,2013-08-10 12:25:00,
2013-08-10 08:30:00,72.7,72.7,30.00,West,264,0.0,0.0,100,0.00,,SKC,0.00,VWS V14.01,2013-08-10 12:30:00,
2013-08-10 08:35:00,73.0,73.0,30.00,West,264,0.0,0.0,100,0.00,,SKC,0.00,VWS V14.01,2013-08-10 12:35:00,
2013-08-10 08:40:00,72.8,72.8,30.00,West,264,0.0,0.0,100,0.00,,SKC,0.00,VWS V14.01,2013-08-10 12:40:00,
2013-08-10 08:45:00,73.2,73.2,30.00,West,264,0.0,0.0,100,0.00,,SKC,0.00,VWS V14.01,2013-08-10 12:45:00,
2013-08-10 08:50:00,74.2,73.9,30.00,West,264,0.0,0.0,99,0.00,,SKC,0.00,VWS V14.01,2013-08-10 12:50:00,
2013-08-10 08:55:00,74.7,73.5,30.00,West,264,0.0,0.0,96,0.00,,SKC,0.00,VWS V14.01,2013-08-10 12:55:00,
2013-08-10 09:00:00,74.4,72.9,29.99,West,264,0.0,0.0,95,0.00,,SKC,0.00,VWS V14.01,2013-08-10 13:00:00,
2013-08-10 09:05:00,74.4,72.6,29.99,West,264,0.0,0.0,94,0.00,,SKC,0.00,VWS V14.01,2013-08-10 13:05:00,
2013-08-10 09:10:00,74.9,73.1,29.99,West,264,0.0,0.0,94,0.00,,SKC,0.00,VWS V14.01,2013-08-10 13:10:00,
2013-08-10 09:15:00,75.3,73.1,29.99,West,264,0.0,0.0,93,0.00,,SKC,0.00,VWS V14.01,2013-08-10 13:15:00,
2013-08-10 09:20:00,75.3,72.5,29.99,West,264,0.0,1.0,91,0.00,,SKC,0.00,VWS V14.01,2013-08-10 13:20:00,
2013-08-10 09:25:00,75.8,73.3,29.99,West,264,0.0,0.0,92,0.00,,SKC,0.00,VWS V14.01,2013-08-10 13:25:00,
2013-08-10 09:30:00,76.7,74.2,29.99,West,264,0.0,0.0,92,0.00,,SKC,0.00,VWS V14.01,2013-08-10 13:30:00,
2013-08-10 09:35:00,77.6,74.4,29.99,West,264,0.0,1.0,90,0.00,,SKC,0.00,VWS V14.01,2013-08-10 13:35:00,
2013-08-10 09:40:00,78.6,75.1,29.99,West,264,0.0,0.0,89,0.00,,SKC,0.00,VWS V14.01,2013-08-10 13:40:00,
2013-08-10 09:45:00,79.2,73.6,29.99,West,264,0.0,1.0,83,0.00,,SKC,0.00,VWS V14.01,2013-08-10 13:45:00,
2013-08-10 09:50:00,79.6,73.6,29.99,West,264,0.0,0.0,82,0.00,,SKC,0.00,VWS V14.01,2013-08-10 13:50:00,
2013-08-10 09:55:00,80.5,74.5,29.99,West,264,0.0,0.0,82,0.00,,SKC,0.00,VWS V14.01,2013-08-10 13:55:00,
2013-08-10 10:00:00,80.7,72.8,29.98,West,264,0.0,2.0,77,0.00,,SKC,0.00,VWS V14.01,2013-08-10 14:00:00,
2013-08-10 10:05:00,81.2,73.3,29.98,West,264,0.0,1.0,77,0.00,,SKC,0.00,VWS V14.01,2013-08-10 14:05:00,
2013-08-10 10:10:00,81.8,73.1,29.98,West,264,0.0,0.0,75,0.00,,SKC,0.00,VWS V14.01,2013-08-10 14:10:00,
2013-08-10 10:15:00,82.2,73.9,29.99,West,264,0.0,0.0,76,0.00,,SKC,0.00,VWS V14.01,2013-08-10 14:15:00,
2013-08-10 10:20:00,82.8,74.5,29.99,West,264,0.0,1.0,76,0.00,,SKC,0.00,VWS V14.01,2013-08-10 14:20:00,
2013-08-10 10:25:00,82.8,74.5,29.99,West,264,0.0,1.0,76,0.00,,SKC,0.00,VWS V14.01,2013-08-10 14:25:00,
2013-08-10 10:30:00,82.8,74.5,30.00,West,263,0.0,1.0,76,0.00,,SKC,0.00,VWS V14.01,2013-08-10 14:30:00,
2013-08-10 10:35:00,82.4,73.7,30.00,West,261,0.0,2.0,75,0.00,,SKC,0.00,VWS V14.01,2013-08-10 14:35:00,
2013-08-10 10:40:00,82.0,73.7,30.00,WSW,258,0.0,1.0,76,0.00,,SKC,0.00,VWS V14.01,2013-08-10 14:40:00,
2013-08-10 10:45:00,82.0,73.3,30.00,WSW,256,0.0,1.0,75,0.00,,SKC,0.00,VWS V14.01,2013-08-10 14:45:00,
2013-08-10 10:50:00,82.2,73.9,30.00,WSW,256,0.0,1.0,76,0.00,,SKC,0.00,VWS V14.01,2013-08-10 14:50:00,
2013-08-10 10:55:00,82.8,72.9,30.00,WSW,255,0.0,2.0,72,0.00,,SKC,0.00,VWS V14.01,2013-08-10 14:55:00,
2013-08-10 11:00:00,82.8,73.3,30.00,WSW,255,0.0,0.0,73,0.00,,SKC,0.00,VWS V14.01,2013-08-10 15:00:00,
2013-08-10 11:05:00,83.4,74.2,30.00,WSW,255,0.0,2.0,74,0.00,,SKC,0.00,VWS V14.01,2013-08-10 15:05:00,
2013-08-10 11:10:00,83.8,73.0,30.00,WSW,241,0.0,3.0,70,0.00,,SKC,0.00,VWS V14.01,2013-08-10 15:10:00,
2013-08-10 11:15:00,84.0,73.6,30.00,WSW,241,1.0,3.0,71,0.00,,SKC,0.00,VWS V14.01,2013-08-10 15:15:00,
2013-08-10 11:20:00,84.0,72.7,30.00,WSW,240,0.0,2.0,69,0.00,,SKC,0.00,VWS V14.01,2013-08-10 15:20:00,
2013-08-10 11:25:00,83.2,73.2,30.00,WSW,238,0.0,2.0,72,0.00,,SKC,0.00,VWS V14.01,2013-08-10 15:25:00,
2013-08-10 11:30:00,82.8,73.3,30.01,SW,233,0.0,3.0,73,0.00,,SKC,0.00,VWS V14.01,2013-08-10 15:30:00,
2013-08-10 11:35:00,83.0,73.1,30.01,SW,227,0.0,3.0,72,0.00,,SKC,0.00,VWS V14.01,2013-08-10 15:35:00,
2013-08-10 11:40:00,83.6,74.8,30.01,SW,227,0.0,0.0,75,0.00,,SKC,0.00,VWS V14.01,2013-08-10 15:40:00,
2013-08-10 11:45:00,84.0,74.0,30.00,SSW,204,0.0,3.0,72,0.00,,SKC,0.00,VWS V14.01,2013-08-10 15:45:00,
2013-08-10 11:50:00,84.0,73.6,30.00,SSW,204,0.0,1.0,71,0.00,,SKC,0.00,VWS V14.01,2013-08-10 15:50:00,
2013-08-10 11:55:00,83.8,73.0,30.00,WSW,245,1.0,5.0,70,0.00,,SKC,0.00,VWS V14.01,2013-08-10 15:55:00,
2013-08-10 12:00:00,82.8,71.2,30.01,NW,312,5.0,12.0,68,0.00,,SKC,0.00,VWS V14.01,2013-08-10 16:00:00,
2013-08-10 12:05:00,81.2,71.3,30.01,WNW,286,3.0,9.0,72,0.00,,SKC,0.00,VWS V14.01,2013-08-10 16:05:00,
2013-08-10 12:10:00,79.4,68.3,30.01,WNW,290,1.0,13.0,69,0.00,,SKC,0.00,VWS V14.01,2013-08-10 16:10:00,
2013-08-10 12:15:00,77.9,68.9,30.02,WNW,301,7.0,7.0,74,0.00,,SKC,0.00,VWS V14.01,2013-08-10 16:15:00,
2013-08-10 12:20:00,76.3,70.4,30.02,WNW,290,1.0,6.0,82,0.01,,SKC,0.01,VWS V14.01,2013-08-10 16:20:00,
2013-08-10 12:25:00,74.9,69.7,30.02,WSW,255,0.0,7.0,84,0.06,,SKC,0.06,VWS V14.01,2013-08-10 16:25:00,
2013-08-10 12:30:00,74.4,70.6,30.02,WSW,255,0.0,2.0,88,0.07,,SKC,0.07,VWS V14.01,2013-08-10 16:30:00,
2013-08-10 12:35:00,73.9,70.8,30.02,WSW,255,0.0,0.0,90,0.07,,SKC,0.07,VWS V14.01,2013-08-10 16:35:00,
2013-08-10 12:40:00,73.3,70.2,30.02,WSW,255,0.0,0.0,90,0.07,,SKC,0.07,VWS V14.01,2013-08-10 16:40:00,
2013-08-10 12:45:00,73.3,70.8,30.02,WSW,255,0.0,0.0,92,0.08,,SKC,0.08,VWS V14.01,2013-08-10 16:45:00,
2013-08-10 12:50:00,73.2,71.1,30.02,WSW,254,0.0,2.0,93,0.08,,SKC,0.08,VWS V14.01,2013-08-10 16:50:00,
2013-08-10 12:55:00,73.2,71.4,30.02,WSW,254,0.0,0.0,94,0.08,,SKC,0.08,VWS V14.01,2013-08-10 16:55:00,
2013-08-10 13:00:00,73.2,71.7,30.03,WSW,254,0.0,1.0,95,0.08,,SKC,0.08,VWS V14.01,2013-08-10 17:00:00,
2013-08-10 13:05:00,73.2,71.7,30.03,WSW,254,0.0,0.0,95,0.08,,SKC,0.08,VWS V14.01,2013-08-10 17:05:00,
2013-08-10 13:10:00,73.0,71.5,30.03,WSW,254,0.0,2.0,95,0.08,,SKC,0.08,VWS V14.01,2013-08-10 17:10:00,
2013-08-10 13:15:00,73.5,72.3,30.02,WSW,254,0.0,2.0,96,0.08,,SKC,0.08,VWS V14.01,2013-08-10 17:15:00,
2013-08-10 13:20:00,74.7,73.5,30.02,WSW,254,0.0,3.0,96,0.08,,SKC,0.08,VWS V14.01,2013-08-10 17:20:00,
2013-08-10 13:25:00,74.6,71.8,30.02,SW,227,0.0,3.0,91,0.07,,SKC,0.08,VWS V14.01,2013-08-10 17:25:00,
2013-08-10 13:30:00,75.1,72.0,30.01,SW,227,0.0,1.0,90,0.01,,SKC,0.08,VWS V14.01,2013-08-10 17:30:00,
2013-08-10 13:35:00,76.0,72.9,30.01,SW,232,0.0,2.0,90,0.01,,SKC,0.08,VWS V14.01,2013-08-10 17:35:00,
2013-08-10 13:40:00,76.1,71.3,30.01,SW,232,0.0,1.0,85,0.01,,SKC,0.08,VWS V14.01,2013-08-10 17:40:00,
2013-08-10 13:45:00,76.3,70.4,30.00,SW,233,0.0,0.0,82,0.00,,SKC,0.08,VWS V14.01,2013-08-10 17:45:00,
2013-08-10 13:50:00,77.0,71.1,30.00,SW,232,0.0,0.0,82,0.00,,SKC,0.08,VWS V14.01,2013-08-10 17:50:00,
2013-08-10 13:55:00,78.1,71.4,30.00,SW,233,0.0,0.0,80,0.00,,SKC,0.08,VWS V14.01,2013-08-10 17:55:00,
2013-08-10 14:00:00,78.6,70.8,29.99,SW,232,0.0,0.0,77,0.00,,SKC,0.08,VWS V14.01,2013-08-10 18:00:00,
2013-08-10 14:05:00,79.0,71.6,29.99,SW,232,0.0,0.0,78,0.00,,SKC,0.08,VWS V14.01,2013-08-10 18:05:00,
2013-08-10 14:10:00,79.4,69.2,29.99,SW,230,0.0,1.0,71,0.00,,SKC,0.08,VWS V14.01,2013-08-10 18:10:00,
2013-08-10 14:15:00,80.3,72.8,29.98,SW,230,0.0,0.0,78,0.00,,SKC,0.08,VWS V14.01,2013-08-10 18:15:00,
2013-08-10 14:20:00,81.2,73.3,29.98,SW,230,0.0,0.0,77,0.00,,SKC,0.08,VWS V14.01,2013-08-10 18:20:00,
2013-08-10 14:25:00,81.6,73.7,29.98,SW,230,0.0,0.0,77,0.00,,SKC,0.08,VWS V14.01,2013-08-10 18:25:00,
2013-08-10 14:30:00,82.2,73.1,29.97,SW,230,2.0,2.0,74,0.00,,SKC,0.08,VWS V14.01,2013-08-10 18:30:00,
2013-08-10 14:35:00,82.2,72.3,29.97,SW,220,0.0,3.0,72,0.00,,SKC,0.08,VWS V14.01,2013-08-10 18:35:00,
2013-08-10 14:40:00,82.0,71.7,29.97,SW,217,0.0,3.0,71,0.00,,SKC,0.08,VWS V14.01,2013-08-10 18:40:00,
2013-08-10 14:45:00,82.2,71.9,29.96,SW,217,2.0,2.0,71,0.00,,SKC,0.08,VWS V14.01,2013-08-10 18:45:00,
2013-08-10 14:50:00,82.6,71.4,29.96,SW,214,0.0,3.0,69,0.00,,SKC,0.08,VWS V14.01,2013-08-10 18:50:00,
2013-08-10 14:55:00,82.4,72.5,29.96,SW,214,0.0,0.0,72,0.00,,SKC,0.08,VWS V14.01,2013-08-10 18:55:00,
2013-08-10 15:00:00,82.0,71.7,29.97,SW,214,0.0,0.0,71,0.00,,SKC,0.08,VWS V14.01,2013-08-10 19:00:00,
2013-08-10 15:05:00,81.8,71.5,29.97,SW,214,0.0,0.0,71,0.00,,SKC,0.08,VWS V14.01,2013-08-10 19:05:00,
2013-08-10 15:10:00,81.6,74.1,29.97,SW,214,0.0,0.0,78,0.00,,SKC,0.08,VWS V14.01,2013-08-10 19:10:00,
2013-08-10 15:15:00,80.5,75.2,29.99,WSW,249,4.0,6.0,84,0.04,,SKC,0.12,VWS V14.01,2013-08-10 19:15:00,
2013-08-10 15:20:00,78.5,74.0,29.99,WNW,297,4.0,10.0,86,0.11,,SKC,0.19,VWS V14.01,2013-08-10 19:20:00,
2013-08-10 15:25:00,76.0,71.9,29.99,WNW,282,6.0,10.0,87,0.24,,SKC,0.32,VWS V14.01,2013-08-10 19:25:00,
2013-08-10 15:30:00,73.3,68.5,30.02,West,266,2.0,9.0,85,0.52,,SKC,0.60,VWS V14.01,2013-08-10 19:30:00,
2013-08-10 15:35:00,72.0,68.6,30.02,West,266,3.0,6.0,89,0.69,,SKC,0.77,VWS V14.01,2013-08-10 19:35:00,
2013-08-10 15:40:00,71.6,69.2,30.02,West,266,3.0,13.0,92,0.81,,SKC,0.89,VWS V14.01,2013-08-10 19:40:00,
2013-08-10 15:45:00,71.1,68.7,30.02,WNW,292,8.0,10.0,92,0.92,,SKC,1.00,VWS V14.01,2013-08-10 19:45:00,
2013-08-10 15:50:00,70.4,68.3,30.02,NW,318,4.0,11.0,93,0.96,,SKC,1.04,VWS V14.01,2013-08-10 19:50:00,
2013-08-10 15:55:00,69.9,67.8,30.02,WNW,290,2.0,7.0,93,0.97,,SKC,1.05,VWS V14.01,2013-08-10 19:55:00,
2013-08-10 16:00:00,70.1,68.3,30.02,WNW,290,0.0,4.0,94,0.97,,SKC,1.05,VWS V14.01,2013-08-10 20:00:00,
2013-08-10 16:05:00,70.4,68.9,30.02,WNW,290,0.0,3.0,95,0.97,,SKC,1.05,VWS V14.01,2013-08-10 20:05:00,
2013-08-10 16:10:00,70.8,69.6,30.02,WNW,290,0.0,1.0,96,0.97,,SKC,1.05,VWS V14.01,2013-08-10 20:10:00,
2013-08-10 16:15:00,70.9,69.7,30.02,WNW,290,0.0,1.0,96,0.97,,SKC,1.05,VWS V14.01,2013-08-10 20:15:00,
2013-08-10 16:20:00,70.8,69.6,30.02,WNW,289,6.0,6.0,96,0.93,,SKC,1.06,VWS V14.01,2013-08-10 20:20:00,
2013-08-10 16:25:00,70.6,69.4,30.02,WNW,289,5.0,10.0,96,0.88,,SKC,1.09,VWS V14.01,2013-08-10 20:25:00,
2013-08-10 16:30:00,70.4,69.2,30.02,WNW,295,5.0,7.0,96,0.76,,SKC,1.11,VWS V14.01,2013-08-10 20:30:00,
2013-08-10 16:35:00,70.4,69.5,30.03,WNW,293,0.0,6.0,97,0.49,,SKC,1.14,VWS V14.01,2013-08-10 20:35:00,
2013-08-10 16:40:00,70.6,69.7,30.03,WNW,293,0.0,2.0,97,0.40,,SKC,1.19,VWS V14.01,2013-08-10 20:40:00,
2013-08-10 16:45:00,70.8,69.9,30.03,WNW,293,0.0,0.0,97,0.31,,SKC,1.23,VWS V14.01,2013-08-10 20:45:00,
2013-08-10 16:50:00,71.1,70.2,30.02,WNW,292,0.0,0.0,97,0.28,,SKC,1.30,VWS V14.01,2013-08-10 20:50:00,
2013-08-10 16:55:00,70.8,69.9,30.02,WNW,289,0.0,1.0,97,0.35,,SKC,1.39,VWS V14.01,2013-08-10 20:55:00,
2013-08-10 17:00:00,70.6,69.7,30.02,WNW,289,0.0,0.0,97,0.37,,SKC,1.42,VWS V14.01,2013-08-10 21:00:00,
2013-08-10 17:05:00,70.8,70.2,30.01,WNW,289,0.0,0.0,98,0.38,,SKC,1.43,VWS V14.01,2013-08-10 21:05:00,
2013-08-10 17:10:00,70.8,70.2,30.01,WNW,289,0.0,0.0,98,0.38,,SKC,1.43,VWS V14.01,2013-08-10 21:10:00,
2013-08-10 17:15:00,70.8,70.2,30.01,WNW,289,0.0,0.0,98,0.39,,SKC,1.44,VWS V14.01,2013-08-10 21:15:00,
2013-08-10 17:20:00,71.1,70.5,30.02,WNW,289,0.0,0.0,98,0.39,,SKC,1.44,VWS V14.01,2013-08-10 21:20:00,
2013-08-10 17:25:00,71.3,71.0,30.02,WNW,289,0.0,0.0,99,0.38,,SKC,1.44,VWS V14.01,2013-08-10 21:25:00,
2013-08-10 17:30:00,71.6,71.3,30.02,WNW,289,0.0,0.0,99,0.34,,SKC,1.44,VWS V14.01,2013-08-10 21:30:00,
2013-08-10 17:35:00,71.6,71.3,30.02,WNW,289,3.0,3.0,99,0.33,,SKC,1.44,VWS V14.01,2013-08-10 21:35:00,
2013-08-10 17:40:00,71.6,71.3,30.02,WNW,289,0.0,0.0,99,0.29,,SKC,1.44,VWS V14.01,2013-08-10 21:40:00,
2013-08-10 17:45:00,71.6,71.0,30.02,WNW,289,0.0,0.0,98,0.24,,SKC,1.44,VWS V14.01,2013-08-10 21:45:00,
2013-08-10 17:50:00,71.8,71.5,30.03,WNW,289,0.0,3.0,99,0.21,,SKC,1.45,VWS V14.01,2013-08-10 21:50:00,
2013-08-10 17:55:00,71.3,70.7,30.03,WNW,288,2.0,3.0,98,0.26,,SKC,1.59,VWS V14.01,2013-08-10 21:55:00,
2013-08-10 18:00:00,70.8,70.2,30.03,WNW,289,0.0,0.0,98,0.27,,SKC,1.67,VWS V14.01,2013-08-10 22:00:00,
2013-08-10 18:05:00,70.9,70.3,30.04,WNW,288,0.0,2.0,98,0.28,,SKC,1.70,VWS V14.01,2013-08-10 22:05:00,
2013-08-10 18:10:00,70.3,69.4,30.04,WNW,285,0.0,3.0,97,0.28,,SKC,1.71,VWS V14.01,2013-08-10 22:10:00,
2013-08-10 18:15:00,69.9,68.7,30.04,WNW,285,0.0,0.0,96,0.27,,SKC,1.71,VWS V14.01,2013-08-10 22:15:00,
2013-08-10 18:20:00,70.1,68.9,30.04,WNW,285,0.0,4.0,96,0.28,,SKC,1.72,VWS V14.01,2013-08-10 22:20:00,
2013-08-10 18:25:00,70.1,68.9,30.04,WNW,285,0.0,5.0,96,0.28,,SKC,1.72,VWS V14.01,2013-08-10 22:25:00,
2013-08-10 18:30:00,70.1,68.9,30.04,WNW,285,0.0,1.0,96,0.28,,SKC,1.72,VWS V14.01,2013-08-10 22:30:00,
2013-08-10 18:35:00,70.1,69.2,30.04,WNW,285,0.0,0.0,97,0.29,,SKC,1.73,VWS V14.01,2013-08-10 22:35:00,
2013-08-10 18:40:00,70.1,69.2,30.04,WNW,285,0.0,0.0,97,0.30,,SKC,1.74,VWS V14.01,2013-08-10 22:40:00,
2013-08-10 18:45:00,70.1,69.2,30.04,WNW,285,0.0,0.0,97,0.30,,SKC,1.74,VWS V14.01,2013-08-10 22:45:00,
2013-08-10 18:50:00,70.3,69.4,30.05,WNW,285,0.0,0.0,97,0.30,,SKC,1.74,VWS V14.01,2013-08-10 22:50:00,
2013-08-10 18:55:00,70.3,69.4,30.05,WNW,285,0.0,0.0,97,0.29,,SKC,1.75,VWS V14.01,2013-08-10 22:55:00,
2013-08-10 19:00:00,70.1,69.2,30.05,WNW,285,0.0,0.0,97,0.14,,SKC,1.75,VWS V14.01,2013-08-10 23:00:00,
2013-08-10 19:05:00,69.8,68.9,30.05,WNW,285,0.0,0.0,97,0.07,,SKC,1.75,VWS V14.01,2013-08-10 23:05:00,
2013-08-10 19:10:00,69.9,69.3,30.05,WNW,285,0.0,0.0,98,0.05,,SKC,1.75,VWS V14.01,2013-08-10 23:10:00,
2013-08-10 19:15:00,69.8,69.2,30.05,WNW,285,0.0,0.0,98,0.04,,SKC,1.75,VWS V14.01,2013-08-10 23:15:00,
2013-08-10 19:20:00,69.8,69.2,30.04,WNW,285,0.0,0.0,98,0.04,,SKC,1.75,VWS V14.01,2013-08-10 23:20:00,
2013-08-10 19:25:00,69.9,69.3,30.04,WNW,285,0.0,0.0,98,0.03,,SKC,1.75,VWS V14.01,2013-08-10 23:25:00,
2013-08-10 19:30:00,69.8,69.2,30.04,WNW,285,0.0,0.0,98,0.03,,SKC,1.75,VWS V14.01,2013-08-10 23:30:00,
2013-08-10 19:35:00,69.6,69.0,30.02,WNW,285,0.0,0.0,98,0.02,,SKC,1.75,VWS V14.01,2013-08-10 23:35:00,
2013-08-10 19:40:00,69.6,69.0,30.02,WNW,285,0.0,0.0,98,0.02,,SKC,1.75,VWS V14.01,2013-08-10 23:40:00,
2013-08-10 19:45:00,69.4,68.8,30.02,WNW,285,0.0,0.0,98,0.01,,SKC,1.75,VWS V14.01,2013-08-10 23:45:00,
2013-08-10 19:50:00,69.4,69.1,30.03,WNW,285,0.0,0.0,99,0.01,,SKC,1.75,VWS V14.01,2013-08-10 23:50:00,
2013-08-10 19:55:00,69.4,69.1,30.03,WNW,285,0.0,0.0,99,0.01,,SKC,1.75,VWS V14.01,2013-08-10 23:55:00,
2013-08-10 20:00:00,69.4,68.8,30.03,WNW,285,0.0,0.0,98,0.00,,SKC,1.75,VWS V14.01,2013-08-11 00:00:00,
2013-08-10 20:05:00,69.4,69.1,30.02,WNW,285,0.0,0.0,99,0.00,,SKC,1.75,VWS V14.01,2013-08-11 00:05:00,
2013-08-10 20:10:00,69.3,69.0,30.02,WNW,285,0.0,0.0,99,0.00,,SKC,1.75,VWS V14.01,2013-08-11 00:10:00,
2013-08-10 20:15:00,69.3,69.0,30.02,WNW,285,0.0,0.0,99,0.00,,SKC,1.75,VWS V14.01,2013-08-11 00:15:00,
2013-08-10 20:20:00,69.1,68.5,30.00,WNW,285,0.0,0.0,98,0.00,,SKC,1.75,VWS V14.01,2013-08-11 00:20:00,
2013-08-10 20:25:00,68.8,68.2,30.00,WNW,285,0.0,0.0,98,0.00,,SKC,1.75,VWS V14.01,2013-08-11 00:25:00,
2013-08-10 20:30:00,68.8,68.2,30.00,WNW,285,0.0,0.0,98,0.00,,SKC,1.75,VWS V14.01,2013-08-11 00:30:00,
2013-08-10 20:35:00,68.6,68.0,30.01,WNW,285,1.0,2.0,98,0.00,,SKC,1.75,VWS V14.01,2013-08-11 00:35:00,
2013-08-10 20:40:00,68.3,67.7,30.01,WNW,285,0.0,0.0,98,0.00,,SKC,1.75,VWS V14.01,2013-08-11 00:40:00,
2013-08-10 20:45:00,68.1,67.5,30.01,WNW,285,0.0,0.0,98,0.00,,SKC,1.75,VWS V14.01,2013-08-11 00:45:00,
2013-08-10 20:50:00,67.9,67.3,30.02,WNW,285,0.0,0.0,98,0.00,,SKC,1.75,VWS V14.01,2013-08-11 00:50:00,
2013-08-10 20:55:00,67.9,67.3,30.02,WNW,285,0.0,0.0,98,0.00,,SKC,1.75,VWS V14.01,2013-08-11 00:55:00,
2013-08-10 21:00:00,67.6,67.0,30.02,WNW,285,0.0,4.0,98,0.00,,SKC,1.75,VWS V14.01,2013-08-11 01:00:00,
2013-08-10 21:05:00,67.4,66.8,30.02,WNW,285,0.0,2.0,98,0.00,,SKC,1.75,VWS V14.01,2013-08-11 01:05:00,
2013-08-10 21:10:00,67.3,66.7,30.02,WNW,285,0.0,0.0,98,0.00,,SKC,1.75,VWS V14.01,2013-08-11 01:10:00,
2013-08-10 21:15:00,67.1,66.5,30.02,WNW,285,0.0,0.0,98,0.00,,SKC,1.75,VWS V14.01,2013-08-11 01:15:00,
2013-08-10 21:20:00,66.9,66.3,30.02,WNW,285,0.0,0.0,98,0.00,,SKC,1.75,VWS V14.01,2013-08-11 01:20:00,
2013-08-10 21:25:00,66.9,66.3,30.02,WNW,285,0.0,0.0,98,0.00,,SKC,1.75,VWS V14.01,2013-08-11 01:25:00,
2013-08-10 21:30:00,66.8,66.2,30.02,WNW,285,0.0,0.0,98,0.00,,SKC,1.75,VWS V14.01,2013-08-11 01:30:00,
2013-08-10 21:35:00,66.8,66.2,30.03,WNW,285,0.0,1.0,98,0.00,,SKC,1.75,VWS V14.01,2013-08-11 01:35:00,
2013-08-10 21:40:00,66.9,66.3,30.03,WNW,285,0.0,0.0,98,0.00,,SKC,1.75,VWS V14.01,2013-08-11 01:40:00,
2013-08-10 21:45:00,66.9,66.3,30.03,WNW,285,0.0,0.0,98,0.00,,SKC,1.75,VWS V14.01,2013-08-11 01:45:00,
2013-08-10 21:50:00,66.9,66.3,30.03,WNW,285,0.0,0.0,98,0.00,,SKC,1.75,VWS V14.01,2013-08-11 01:50:00,
2013-08-10 21:55:00,66.8,66.2,30.03,WNW,285,0.0,1.0,98,0.00,,SKC,1.75,VWS V14.01,2013-08-11 01:55:00,
2013-08-10 22:00:00,66.8,66.2,30.03,WNW,285,0.0,3.0,98,0.00,,SKC,1.75,VWS V14.01,2013-08-11 02:00:00,
2013-08-10 22:05:00,66.6,66.0,30.03,WNW,285,2.0,4.0,98,0.00,,SKC,1.75,VWS V14.01,2013-08-11 02:05:00,
2013-08-10 22:10:00,66.6,66.0,30.03,WNW,285,0.0,0.0,98,0.00,,SKC,1.75,VWS V14.01,2013-08-11 02:10:00,
2013-08-10 22:15:00,66.6,66.0,30.03,WNW,285,0.0,0.0,98,0.00,,SKC,1.75,VWS V14.01,2013-08-11 02:15:00,
2013-08-10 22:20:00,66.6,66.0,30.03,WNW,285,0.0,0.0,98,0.00,,SKC,1.75,VWS V14.01,2013-08-11 02:20:00,
2013-08-10 22:25:00,66.6,66.0,30.03,WNW,285,0.0,0.0,98,0.00,,SKC,1.75,VWS V14.01,2013-08-11 02:25:00,
2013-08-10 22:30:00,66.4,65.8,30.03,WNW,285,4.0,4.0,98,0.00,,SKC,1.75,VWS V14.01,2013-08-11 02:30:00,
2013-08-10 22:35:00,66.4,65.8,30.03,WNW,285,1.0,3.0,98,0.00,,SKC,1.75,VWS V14.01,2013-08-11 02:35:00,
2013-08-10 22:40:00,66.4,65.8,30.03,WNW,285,0.0,3.0,98,0.00,,SKC,1.75,VWS V14.01,2013-08-11 02:40:00,
2013-08-10 22:45:00,66.4,65.8,30.03,WNW,285,0.0,3.0,98,0.00,,SKC,1.75,VWS V14.01,2013-08-11 02:45:00,
2013-08-10 22:50:00,66.4,65.8,30.03,WNW,285,0.0,0.0,98,0.00,,SKC,1.75,VWS V14.01,2013-08-11 02:50:00,
2013-08-10 22:55:00,66.4,65.8,30.03,WNW,285,0.0,0.0,98,0.00,,SKC,1.75,VWS V14.01,2013-08-11 02:55:00,
2013-08-10 23:00:00,66.4,65.8,30.03,WNW,285,0.0,0.0,98,0.00,,SKC,1.75,VWS V14.01,2013-08-11 03:00:00,
2013-08-10 23:05:00,66.4,65.8,30.03,WNW,285,0.0,1.0,98,0.00,,SKC,1.75,VWS V14.01,2013-08-11 03:05:00,
2013-08-10 23:10:00,66.4,65.8,30.03,WNW,285,2.0,4.0,98,0.00,,SKC,1.75,VWS V14.01,2013-08-11 03:10:00,
2013-08-10 23:15:00,66.4,65.8,30.02,WNW,285,0.0,0.0,98,0.00,,SKC,1.75,VWS V14.01,2013-08-11 03:15:00,
2013-08-10 23:20:00,66.3,65.7,30.02,WNW,285,0.0,0.0,98,0.00,,SKC,1.75,VWS V14.01,2013-08-11 03:20:00,
2013-08-10 23:25:00,66.1,65.5,30.02,WNW,285,0.0,4.0,98,0.00,,SKC,1.75,VWS V14.01,2013-08-11 03:25:00,
2013-08-10 23:31:00,66.1,65.5,30.01,WNW,285,0.0,1.0,98,0.00,,SKC,1.75,VWS V14.01,2013-08-11 03:31:00,
2013-08-10 23:36:00,66.1,65.5,30.01,WNW,285,0.0,3.0,98,0.00,,SKC,1.75,VWS V14.01,2013-08-11 03:36:00,
2013-08-10 23:41:00,66.1,65.5,30.01,WNW,285,0.0,0.0,98,0.00,,SKC,1.75,VWS V14.01,2013-08-11 03:41:00,
2013-08-10 23:46:00,66.3,65.7,30.01,WNW,285,3.0,4.0,98,0.00,,SKC,1.75,VWS V14.01,2013-08-11 03:46:00,
2013-08-10 23:51:00,66.1,65.5,30.01,WNW,285,0.0,1.0,98,0.00,,SKC,1.75,VWS V14.01,2013-08-11 03:51:00,
2013-08-10 23:56:00,66.1,65.5,30.01,WNW,285,0.0,0.0,98,0.01,,SKC,1.76,VWS V14.01,2013-08-11 03:56:00,